Location: High Cliff State Park
(44.1557°N, 88.2948°W)
Time: 10:26:41
(UTC-05:00)

Amateur Radio Satellites - All Passes

Search period start: 17 April 2014 09:56
Search period end: 18 April 2014 09:56
Location: High Cliff State Park, 44.1557°N, 88.2948°W

Satellite Date Start Highest point End Downlink Frequencies (MHz)
Time Altitude Azimuth
HO-68 17 Apr 10:10:58 10:18:10 71° 104° (ESE) 10:25:19 435.675 MHz FM
KITSAT 1 17 Apr 10:21:31 10:27:56 25° 30° (NNE) 10:34:18 435.175 FM
PCSat 17 Apr 10:24:52 10:30:20 88° 59° (ENE) 10:35:46 145.825 MHz
RS-15 17 Apr 10:47:09 10:56:40 31° 336° (NNW) 11:06:06 29.354 - 29.394 USB, Beacon 29.352 USB
FUNcube-1 17 Apr 10:55:52 10:59:39 31° 97° (E) 11:03:29 145.950 - 145.970 MHz USB
Saudisat 1A 17 Apr 11:09:03 11:12:31 22° 113° (ESE) 11:16:00 436.775 MHz
Oscar 11 17 Apr 11:12:52 11:17:08 55° 287° (WNW) 11:21:23 145.825 FM, Beacon 2401.500 USB
Sapphire 17 Apr 11:23:27 11:28:19 35° 249° (WSW) 11:33:09 437.095 MHz 1200 baud AX-25 AFSK
HO-68 17 Apr 11:59:35 12:05:16 26° 304° (WNW) 12:10:56 435.675 MHz FM
PCSat 17 Apr 12:10:22 12:12:58 14° 257° (WSW) 12:15:33 145.825 MHz
KITSAT 1 17 Apr 12:16:41 12:24:49 74° 55° (NE) 12:32:53 435.175 FM
AO-27 17 Apr 12:20:41 12:21:53 11° 55° (NE) 12:23:05 436.795 MHz FM
ITAMSAT 1 17 Apr 12:30:43 12:33:04 13° 57° (ENE) 12:35:25 435.822 SSB
FUNcube-1 17 Apr 12:32:31 12:35:58 25° 293° (WNW) 12:39:27 145.950 - 145.970 MHz USB
Oscar 19 17 Apr 12:38:34 12:42:47 27° 64° (ENE) 12:47:02 437.125 CW, 437.150 USB
Oscar 16 17 Apr 12:46:02 12:50:34 33° 66° (ENE) 12:55:08 437.025 USB, Beacon 2401.1428
Saudisat 1A 17 Apr 12:47:33 12:51:52 46° 311° (NW) 12:56:11 436.775 MHz
AO-Echo 17 Apr 12:59:48 13:03:22 19° 62° (ENE) 13:06:53 ?
RS-15 17 Apr 13:04:45 13:13:35 26° 12° (NNE) 13:22:25 29.354 - 29.394 USB, Beacon 29.352 USB
Uribyol 2 17 Apr 13:16:59 13:21:35 34° 66° (ENE) 13:26:11 436.500 FM
Gurwin Techsat 1B 17 Apr 13:37:02 13:40:23 17° 59° (ENE) 13:43:44 435.225 FM
JAS-1B 17 Apr 13:47:01 13:50:25 14° 54° (NE) 13:53:36 435.800 - 435.900 CW/SSB
AO-27 17 Apr 13:55:18 14:00:28 71° 73° (ENE) 14:05:39 436.795 MHz FM
ITAMSAT 1 17 Apr 14:06:36 14:11:47 87° 75° (ENE) 14:17:00 435.822 SSB
AO-7 17 Apr 14:10:37 14:15:39 18° 45° (NE) 14:20:40 29.400 - 29.500 MHz
KITSAT 1 17 Apr 14:13:03 14:19:29 27° 255° (WSW) 14:25:52 435.175 FM
Oscar 19 17 Apr 14:17:04 14:21:55 42° 262° (W) 14:26:50 437.125 CW, 437.150 USB
TMSAT-1 17 Apr 14:25:09 14:29:45 31° 66° (ENE) 14:34:21 436.925 FM
Oscar 16 17 Apr 14:25:15 14:29:52 34° 264° (W) 14:34:32 437.025 USB, Beacon 2401.1428
Saudisat 1A 17 Apr 14:31:31 14:32:35 11° 332° (NNW) 14:33:39 436.775 MHz
AO-Echo 17 Apr 14:36:26 14:41:40 65° 259° (WSW) 14:46:48 ?
Uosat F 17 Apr 14:54:27 14:58:18 23° 63° (ENE) 15:02:08 435.120 FM
Uribyol 2 17 Apr 14:56:25 15:01:02 33° 264° (W) 15:05:40 436.500 FM
Gurwin Techsat 1B 17 Apr 15:14:27 15:19:45 74° 257° (WSW) 15:25:05 435.225 FM
RS-15 17 Apr 15:18:28 15:29:09 54° 44° (NE) 15:39:59 29.354 - 29.394 USB, Beacon 29.352 USB
JAS-1B 17 Apr 15:31:58 15:40:05 66° 71° (ENE) 15:46:52 435.800 - 435.900 CW/SSB
OPAL 17 Apr 15:35:00 15:40:10 60° 103° (ESE) 15:45:19 ?
AO-27 17 Apr 15:37:32 15:40:30 15° 270° (W) 15:43:30 436.795 MHz FM
ITAMSAT 1 17 Apr 15:50:01 15:51:58 12° 272° (W) 15:53:55 435.822 SSB
AO-7 17 Apr 15:58:48 16:06:59 68° 67° (ENE) 16:15:11 29.400 - 29.500 MHz
TMSAT-1 17 Apr 16:04:42 16:09:34 37° 263° (W) 16:14:28 436.925 FM
ISS 17 Apr 16:23:43 16:26:55 45° 142° (SE) 16:30:09 145.800 FM
Uosat F 17 Apr 16:31:54 16:36:46 49° 260° (W) 16:41:39 435.120 FM
SO-50 17 Apr 16:36:45 16:41:14 87° 124° (SE) 16:45:47 436.795 FM
OPAL 17 Apr 17:14:48 17:18:37 21° 301° (WNW) 17:22:26 ?
JAS-1B 17 Apr 17:24:25 17:30:59 26° 266° (W) 17:36:46 435.800 - 435.900 CW/SSB
Hamsat 17 Apr 17:29:15 17:32:45 26° 68° (ENE) 17:36:18 145.90 MHz
RS-15 17 Apr 17:31:07 17:41:30 52° 247° (WSW) 17:52:10 29.354 - 29.394 USB, Beacon 29.352 USB
UOSAT-12 17 Apr 17:33:01 17:36:20 20° 111° (ESE) 17:39:43 437.025 FM, 437.400 FM
JAS-2 17 Apr 17:48:36 17:52:39 20° 62° (ENE) 17:56:29 435.800 - 435.900 CW/SSB, 435.910 FM
AO-7 17 Apr 17:53:31 18:00:21 28° 266° (W) 18:07:15 29.400 - 29.500 MHz
ISS 17 Apr 18:00:37 18:03:45 35° 340° (NNW) 18:06:53 145.800 FM
STRAND 1 17 Apr 18:12:21 18:13:39 11° 87° (E) 18:14:58 ?
SO-50 17 Apr 18:19:28 18:22:27 17° 324° (NW) 18:25:27 436.795 FM
SO-67 17 Apr 18:43:10 18:46:10 27° 70° (ENE) 18:49:11 435.3500 MHz FM
HO-68 17 Apr 18:58:08 19:01:26 14° 47° (NE) 19:04:43 435.675 MHz FM
Hamsat 17 Apr 19:05:01 19:08:40 29° 265° (W) 19:12:22 145.90 MHz
UOSAT-12 17 Apr 19:11:38 19:16:07 53° 310° (NW) 19:20:42 437.025 FM, 437.400 FM
JAS-2 17 Apr 19:31:32 19:37:25 62° 258° (WSW) 19:42:46 435.800 - 435.900 CW/SSB, 435.910 FM
Saudisat 1A 17 Apr 19:33:40 19:37:38 31° 45° (NE) 19:41:33 436.775 MHz
ISS 17 Apr 19:38:26 19:41:09 22° 0° (N) 19:43:52 145.800 FM
STRAND 1 17 Apr 19:48:26 19:53:34 89° 105° (ESE) 19:58:40 ?
SO-67 17 Apr 20:16:51 20:19:21 18° 267° (W) 20:21:52 435.3500 MHz FM
Oscar 11 17 Apr 20:35:16 20:37:46 15° 62° (ENE) 20:40:15 145.825 FM, Beacon 2401.500 USB
HO-68 17 Apr 20:40:45 20:47:44 62° 68° (ENE) 20:54:46 435.675 MHz FM
UOSAT-12 17 Apr 20:55:21 20:57:21 13° 331° (NNW) 20:59:21 437.025 FM, 437.400 FM
Saudisat 1A 17 Apr 21:13:15 21:17:16 35° 244° (WSW) 21:21:13 436.775 MHz
ISS 17 Apr 21:15:23 21:18:33 37° 20° (NNE) 21:21:42 145.800 FM
STRAND 1 17 Apr 21:29:36 21:32:02 14° 303° (WNW) 21:34:27 ?
FUNcube-1 17 Apr 21:54:16 21:57:58 31° 69° (ENE) 22:01:39 145.950 - 145.970 MHz USB
Oscar 11 17 Apr 22:09:16 22:13:30 58° 259° (W) 22:17:47 145.825 FM, Beacon 2401.500 USB
HO-68 17 Apr 22:30:01 22:35:53 27° 266° (W) 22:41:48 435.675 MHz FM
MaSat-1 17 Apr 22:43:17 22:46:04 41° 299° (WNW) 22:48:34 437.345 MHz
ISS 17 Apr 22:52:08 22:55:21 42° 219° (SW) 22:58:32 145.800 FM
SO-50 17 Apr 23:27:11 23:30:40 21° 39° (NE) 23:34:10 436.795 FM
FUNcube-1 17 Apr 23:30:59 23:34:25 24° 265° (W) 23:37:51 145.950 - 145.970 MHz USB
Sapphire 18 Apr 00:24:12 00:28:28 24° 108° (ESE) 00:32:46 437.095 MHz 1200 baud AX-25 AFSK
SO-50 18 Apr 01:07:04 01:11:42 70° 238° (WSW) 01:16:23 436.795 FM
PCSat 18 Apr 01:07:57 01:13:16 60° 116° (ESE) 01:18:36 145.825 MHz
OPAL 18 Apr 01:14:56 01:18:19 18° 58° (ENE) 01:21:43 ?
UOSAT-12 18 Apr 01:59:59 02:04:12 31° 44° (NE) 02:08:24 437.025 FM, 437.400 FM
Sapphire 18 Apr 02:06:16 02:11:33 53° 306° (NW) 02:16:52 437.095 MHz 1200 baud AX-25 AFSK
AO-27 18 Apr 02:07:35 02:11:36 22° 93° (E) 02:15:35 436.795 MHz FM
Oscar 10/S400 18 Apr 02:13:20 02:29:57 23° 128° (SE) 03:09:44 145.825 - 145.975 CW/USB, Beacon 145.810 USB
ITAMSAT 1 18 Apr 02:18:29 02:22:52 27° 95° (E) 02:27:14 435.822 SSB
Oscar 19 18 Apr 02:26:44 02:31:54 61° 101° (E) 02:37:02 437.125 CW, 437.150 USB
Oscar 16 18 Apr 02:34:40 02:39:54 77° 103° (ESE) 02:45:06 437.025 USB, Beacon 2401.1428
AO-Echo 18 Apr 02:42:42 02:47:07 35° 97° (E) 02:51:26 ?
KITSAT 1 18 Apr 02:46:45 02:54:09 41° 110° (ESE) 03:01:35 435.175 FM
OPAL 18 Apr 02:51:41 02:56:40 66° 256° (WSW) 03:01:46 ?
PCSat 18 Apr 02:52:36 02:57:05 26° 316° (NW) 03:01:34 145.825 MHz
Uribyol 2 18 Apr 03:06:50 03:12:02 79° 104° (ESE) 03:17:13 436.500 FM
JAS-1B 18 Apr 03:19:09 03:19:59 10° 86° (E) 03:20:49 435.800 - 435.900 CW/SSB
Gurwin Techsat 1B 18 Apr 03:29:19 03:34:18 40° 98° (E) 03:39:16 435.225 FM
UOSAT-12 18 Apr 03:40:02 03:44:27 40° 243° (WSW) 03:48:49 437.025 FM, 437.400 FM
AO-27 18 Apr 03:46:23 03:51:22 49° 290° (WNW) 03:56:20 436.795 MHz FM
Sapphire 18 Apr 03:53:50 03:56:16 13° 328° (NNW) 03:58:43 437.095 MHz 1200 baud AX-25 AFSK
ITAMSAT 1 18 Apr 03:57:40 04:02:28 40° 292° (WNW) 04:07:15 435.822 SSB
AO-7 18 Apr 04:00:05 04:05:37 19° 90° (E) 04:11:08 29.400 - 29.500 MHz
Oscar 19 18 Apr 04:07:07 04:10:46 20° 299° (WNW) 04:14:26 437.125 CW, 437.150 USB
Oscar 16 18 Apr 04:15:32 04:18:38 16° 301° (WNW) 04:21:43 437.025 USB, Beacon 2401.1428
TMSAT-1 18 Apr 04:18:24 04:23:44 79° 103° (ESE) 04:29:01 436.925 FM
AO-Echo 18 Apr 04:21:44 04:25:46 27° 295° (WNW) 04:29:43 ?
Uosat F 18 Apr 04:37:59 04:42:47 44° 99° (E) 04:47:33 435.120 FM
KITSAT 1 18 Apr 04:41:29 04:49:23 53° 311° (NW) 04:57:20 435.175 FM
Uribyol 2 18 Apr 04:47:54 04:50:52 16° 302° (WNW) 04:53:49 436.500 FM
JAS-1B 18 Apr 05:05:54 05:11:39 87° 105° (ESE) 05:17:28 435.800 - 435.900 CW/SSB
Gurwin Techsat 1B 18 Apr 05:09:36 05:14:07 29° 295° (WNW) 05:18:37 435.225 FM
STRAND 1 18 Apr 05:28:34 05:32:20 21° 62° (ENE) 05:36:05 ?
RS-15 18 Apr 05:47:02 05:55:15 24° 101° (ESE) 06:03:15 29.354 - 29.394 USB, Beacon 29.352 USB
AO-7 18 Apr 05:51:07 05:59:29 88° 109° (ESE) 06:07:50 29.400 - 29.500 MHz
TMSAT-1 18 Apr 05:59:53 06:03:00 16° 301° (WNW) 06:06:07 436.925 FM
Uosat F 18 Apr 06:17:21 06:21:20 24° 297° (WNW) 06:25:17 435.120 FM
JAS-2 18 Apr 06:39:56 06:42:27 13° 90° (E) 06:45:03 435.800 - 435.900 CW/SSB, 435.910 FM
KITSAT 1 18 Apr 06:41:13 06:46:53 20° 337° (NNW) 06:52:34 435.175 FM
Hamsat 18 Apr 06:48:42 06:52:52 43° 98° (E) 06:57:02 145.90 MHz
JAS-1B 18 Apr 06:58:39 07:01:32 14° 305° (NW) 07:04:25 435.800 - 435.900 CW/SSB
MaSat-1 18 Apr 07:04:46 07:07:31 42° 61° (ENE) 07:10:42 437.345 MHz
STRAND 1 18 Apr 07:06:07 07:11:08 55° 259° (W) 07:16:10 ?
SO-67 18 Apr 07:39:06 07:42:08 27° 96° (E) 07:45:09 435.3500 MHz FM
AO-7 18 Apr 07:45:04 07:51:18 25° 309° (NW) 07:57:34 29.400 - 29.500 MHz
RS-15 18 Apr 07:54:46 08:06:07 89° 123° (ESE) 08:17:08 29.354 - 29.394 USB, Beacon 29.352 USB
PCSat 18 Apr 08:12:12 08:15:19 15° 35° (NE) 08:18:26 145.825 MHz
JAS-2 18 Apr 08:22:48 08:28:07 82° 285° (WNW) 08:33:56 435.800 - 435.900 CW/SSB, 435.910 FM
Hamsat 18 Apr 08:25:27 08:28:34 20° 295° (WNW) 08:31:41 145.90 MHz
KITSAT 1 18 Apr 08:41:35 08:46:06 15° 8° (N) 08:50:36 435.175 FM
Sapphire 18 Apr 09:09:37 09:14:25 31° 47° (NE) 09:19:11 437.095 MHz 1200 baud AX-25 AFSK
SO-67 18 Apr 09:12:35 09:15:08 19° 292° (WNW) 09:17:41 435.3500 MHz FM
